Regional Weather Roundup
Issued by NWS Green Bay, WI

Home | Current Version | Previous Version | Text Only | Print | Product List | Glossary On
Versions: 1 2 3 4 5 6 7 8 9 10 11 12 13 14 15 16 17 18 19 20 21 22 23 24 25 26 27 28 29 30 31 32 33 34 35 36 37 38 39 40 41 42 43 44 45 46 47 48 49 50
000
ASUS43 KGRB 031211
RWRGRB

NORTH-CENTRAL AND NORTHEAST WISCONSIN REGIONAL WEATHER ROUNDUP
NATIONAL WEATHER SERVICE GREEN BAY WI
700 AM CDT TUE AUG 03 2021

WIZ005-009-010>012-018-019-031300-
NORTH CENTRAL WISCONSIN

CITY           SKY/WX    TMP DP  RH WIND       PRES   REMARKS
IRONWOOD       PTSUNNY   64  55  72 SW7       30.06R
MANITOWISH WTR CLOUDY    56  56 100 SW3       30.09R
ARBOR VITAE    CLOUDY    59  48  65 CALM      30.09S
EAGLE RIVER    PTSUNNY   56  56 100 CALM      30.08S FOG
LAND O LAKES   PTSUNNY   52  52 100 CALM      30.10R FOG
RHINELANDER    PTSUNNY   58  55  90 W6        30.10S
PHILLIPS       MOSUNNY   56  56 100 CALM      30.10R
ANTIGO         SUNNY     53  53 100 CALM      30.10S
TOMAHAWK       MOSUNNY   51  50  99 CALM      30.11R
MERRILL        MOSUNNY   52  52 100 CALM      30.09S
$$

WIZ013-073-031300-
NORTHEAST WISCONSIN

CITY           SKY/WX    TMP DP  RH WIND       PRES   REMARKS
IRON MOUNTAIN  MOSUNNY   60  55  83 N3        30.05R HAZE
MARINETTE      SUNNY     60  59  96 VRB3      30.06S
OCONTO         SUNNY     60  59  97 W5        30.07R
$$

WIZ017-030-035>037-045-031300-
CENTRAL WISCONSIN

CITY           SKY/WX    TMP DP  RH WIND       PRES   REMARKS
MEDFORD        MOSUNNY   57  56  97 W3        30.11S
WAUSAU         SUNNY     62  58  86 CALM      30.09R
MOSINEE        SUNNY     55  55 100 CALM      30.12R
MARSHFIELD     SUNNY     57  55  93 SW5       30.11R FOG
WISC RAPIDS    SUNNY     58  57  97 CALM      30.12R
STEVENS POINT  SUNNY     55  55 100 CALM      30.12R
WAUPACA        PTSUNNY   62  60  92 CALM      30.10S
SHAWANO        SUNNY     60  59  97 CALM      30.09R
CLINTONVILLE   MOSUNNY   59  56  91 CALM      30.09S
WAUTOMA        SUNNY     57  56  96 CALM        N/A
$$

WIZ038-039-048-051-031300-
FOX VALLEY

CITY           SKY/WX    TMP DP  RH WIND       PRES   REMARKS
NWS GREEN BAY  PTSUNNY   63  58  83 CALM      30.08S
APPLETON       PTSUNNY   63  57  82 W8        30.09R
OSHKOSH        CLOUDY    62  57  83 CALM      30.09S
FOND DU LAC    SUNNY     62  55  77 S5        30.11S
$$

WIZ022-050-052-031300-
EAST CENTRAL WISCONSIN

CITY           SKY/WX    TMP DP  RH WIND       PRES   REMARKS
EPHRAIM        FAIR      63  60  91 CALM      30.05S
WASHINGTON ISL FAIR      65  63  93 SW7       30.04S
STURGEON BAY   SUNNY     65  61  87 SW8       30.08R
MANITOWOC      CLOUDY    63  61  93 W5        30.09S
SHEBOYGAN      SUNNY     61  57  87 SW3       30.10R
$$

LMZ563-521-522-541>543-031300-
LAKESHORE

STATION/POSITION TIME  TEMP    WIND        PRES    VSBY  WAVE
                       AIR SEA DIR/SP/G                  HT/PER
                 (UTC) (F)     (DEG/KT/KT) (MB)    (MI)  (FT/S)
SHEBOYGAN LKSHOR 1200   65     260/  9/ 10   N/A
KEWAUNEE LKSHORE 1130   63     300/  4/  7 1017.0R
NORTHPORT PIER   1130   66     250/  3/  7 1017.9S
N MID LAKE BUOY  1150   67 67  260/ 10/ 10 1017.3R         2/ 5
S GREEN BAY BUOY 1130   73 72  250/ 10/ 12 1017.5R         1/ 2
SISTER BAY LKSHO 1117   68     270/  7/  9   N/A
CHAMBERS ISLAND  1140   64     170/  4/  5   N/A
MENOMINEE LKSHOR 1130   63 75  250/  7/ 11 1016.5R
$$



USA.gov is the U.S. government's official web portal to all federal, state and local government web resources and services.